Location: Unspecified
(41.1637°N, 24.2901°E)
Time: 14:14:40
(UTC+02:00)

ISS - Pass Details

Date: 22 October 2021
Orbit: 417 x 423 km, 51.6° (Epoch: 26 October)

Event Time Altitude Azimuth Distance (km) Brightness Sun altitude
Exits shadow 05:25:37 - 205° (SSW) 1,671 -0.9 -15.1°
Reaches altitude 10° 05:26:05 10° 202° (SSW) 1,493 -1.2 -15.0°
Maximum altitude 05:29:08 33° 136° (SE) 729 -2.1 -14.4°
Drops below altitude 10° 05:32:11 10° 71° (ENE) 1,499 0.2 -13.9°
Sets 05:34:24 0° 61° (ENE) 2,365 1.1 -13.5°
